TimeMST,TemperatureF,Dew PointF,Humidity,Sea Level PressureIn,VisibilityMPH,Wind Direction,Wind SpeedMPH,Gust SpeedMPH,PrecipitationIn,Events,Conditions,WindDirDegrees,DateUTC
12:53 AM,12.0,6.1,77,30.20,10.0,Calm,Calm,-,N/A,,Clear,0,2013-02-25 07:53:00
1:53 AM,10.0,3.9,76,30.21,10.0,Calm,Calm,-,N/A,,Clear,0,2013-02-25 08:53:00
2:53 AM,8.6,3.2,79,30.00,10.0,SSW,6.9,-,N/A,,Clear,200,2013-02-25 09:53:00
3:53 AM,7.0,1.0,77,30.22,10.0,West,5.8,-,N/A,,Clear,280,2013-02-25 10:53:00
4:53 AM,1.9,-2.9,80,30.25,10.0,West,8.1,-,N/A,,Clear,260,2013-02-25 11:53:00
5:53 AM,3.9,-2.9,73,30.23,10.0,WNW,6.9,-,N/A,,Clear,290,2013-02-25 12:53:00
6:53 AM,3.0,-4.0,73,30.22,10.0,WSW,6.9,-,N/A,,Clear,250,2013-02-25 13:53:00
7:53 AM,12.0,3.0,67,30.16,10.0,NW,6.9,-,N/A,,Clear,320,2013-02-25 14:53:00
8:53 AM,21.9,7.0,53,30.12,10.0,NW,9.2,-,N/A,,Clear,320,2013-02-25 15:53:00
9:53 AM,25.0,8.1,49,30.11,10.0,West,11.5,-,N/A,,Clear,280,2013-02-25 16:53:00
10:53 AM,28.9,8.1,41,30.10,10.0,Variable,4.6,-,N/A,,Clear,0,2013-02-25 17:53:00
11:53 AM,30.0,9.0,41,30.08,10.0,West,6.9,-,N/A,,Clear,280,2013-02-25 18:53:00
12:53 PM,28.9,18.0,64,30.06,10.0,SW,12.7,-,N/A,,Clear,220,2013-02-25 19:53:00
1:53 PM,28.9,19.0,67,30.04,10.0,SSW,9.2,-,N/A,,Clear,210,2013-02-25 20:53:00
2:53 PM,30.9,16.0,54,30.02,10.0,SW,6.9,-,N/A,,Clear,220,2013-02-25 21:53:00
3:53 PM,32.0,16.0,52,30.01,10.0,South,3.5,-,N/A,,Clear,190,2013-02-25 22:53:00
4:53 PM,30.9,16.0,54,30.02,10.0,SSW,3.5,-,N/A,,Clear,210,2013-02-25 23:53:00
5:53 PM,25.0,12.9,60,30.04,10.0,SSW,8.1,-,N/A,,Clear,210,2013-02-26 00:53:00
6:53 PM,24.1,14.0,65,30.04,10.0,South,6.9,-,N/A,,Clear,190,2013-02-26 01:53:00
7:53 PM,19.9,12.9,74,30.02,10.0,SSW,10.4,-,N/A,,Clear,210,2013-02-26 02:53:00
8:53 PM,19.0,12.0,74,29.96,10.0,WSW,4.6,-,N/A,,Clear,250,2013-02-26 03:53:00
9:53 PM,19.0,9.0,65,29.94,10.0,WSW,5.8,-,N/A,,Clear,240,2013-02-26 04:53:00
10:53 PM,19.9,8.1,60,29.89,10.0,SW,4.6,-,N/A,,Clear,220,2013-02-26 05:53:00
11:53 PM,19.0,8.1,62,29.88,10.0,WSW,5.8,-,N/A,,Clear,240,2013-02-26 06:53:00